This demonstration page uses our WeatherBlox Daily Observations layout. Learn more.

Left ArrowRight Arrow

Hourly Observations for May 3, 2021

Temp ( °F °C ) Dew Point ( °F °C ) Humidity (%) Winds ( mph kmh ) Pressure ( in mb ) Visibility ( mi km ) Precip ( " mm )
12:15 am 00:15 Cloudy with Rain 58 14.4 56 13.1 92 92 E 22 35 29.58 1002 7 11 0.06 1.52
12:35 am 00:35 Cloudy with Light Rain 58 14.2 56 13.1 93 93 NE 20 31 29.61 1003 10 16 0.09 2.29
12:55 am 00:55 Cloudy 58 14.2 56 13.1 93 93 ENE 18 30 29.61 1003 10 16 0.09 2.29
1:15 am 01:15 Partly Cloudy 57 14.1 55 13 93 93 N 14 22 29.63 1003 10 16 N/A
1:35 am 01:35 Mostly Cloudy 57 14 55 12.7 92 92 N 13 20 29.65 1004 10 16 N/A
1:55 am 01:55 Cloudy 57 13.7 55 12.6 93 93 N 16 26 29.64 1004 10 16 N/A
2:15 am 02:15 Cloudy 56 13.2 53 11.4 89 89 N 22 35 29.65 1004 10 16 N/A
2:35 am 02:35 Mostly Cloudy 55 12.8 51 10.8 88 88 N 14 22 29.66 1004 10 16 N/A
2:55 am 02:55 Mostly Cloudy 54 12.4 51 10.3 87 87 N 18 30 29.66 1004 10 16 N/A
3:15 am 03:15 Partly Cloudy 54 12.1 50 10.2 88 88 NNW 16 26 29.66 1005 10 16 N/A
3:35 am 03:35 Mostly Cloudy 54 12.1 50 10 87 87 N 17 28 29.66 1005 10 16 N/A
3:55 am 03:55 Cloudy 54 12.2 50 10 87 87 N 18 30 29.67 1005 10 16 N/A
4:15 am 04:15 Cloudy 54 12.3 50 9.8 85 85 NNW 17 28 29.67 1005 10 16 N/A
4:35 am 04:35 Cloudy 54 12 48 9.1 83 83 N 20 31 29.68 1005 10 16 N/A
4:55 am 04:55 Cloudy 53 11.8 48 8.8 82 82 NNW 20 31 29.70 1006 10 16 N/A
5:15 am 05:15 Cloudy 53 11.6 47 8.5 81 81 N 21 33 29.70 1006 10 16 N/A
5:35 am 05:35 Cloudy 53 11.5 46 8 79 79 N 22 35 29.70 1006 10 16 N/A
5:55 am 05:55 Cloudy 52 11.2 46 7.5 78 78 N 23 37 29.70 1006 10 16 N/A
6:15 am 06:15 Cloudy 51 10.8 45 7.3 79 79 N 21 33 29.72 1006 10 16 N/A
6:35 am 06:35 Cloudy 51 10.6 45 7.1 79 79 N 22 35 29.73 1007 10 16 N/A
6:55 am 06:55 Cloudy 51 10.5 45 7.1 80 80 N 16 26 29.74 1007 10 16 N/A
7:15 am 07:15 Cloudy 51 10.5 45 7 79 79 N 15 24 29.75 1007 10 16 N/A
7:35 am 07:35 Cloudy 51 10.5 45 7.3 81 81 N 18 30 29.76 1008 10 16 N/A
7:55 am 07:55 Cloudy 51 10.5 46 7.5 82 82 N 17 28 29.76 1008 10 16 N/A
8:15 am 08:15 Cloudy 51 10.6 46 7.5 81 81 N 24 39 29.77 1008 10 16 N/A
8:35 am 08:35 Cloudy 51 10.8 46 7.6 81 81 N 20 31 29.78 1008 10 16 N/A
8:55 am 08:55 Cloudy 53 11.6 46 7.7 77 77 N 21 33 29.78 1008 10 16 N/A
9:15 am 09:15 Cloudy 51 10.7 45 7.2 79 79 N 17 28 29.81 1009 10 16 N/A
9:35 am 09:35 Mostly Cloudy 52 11.2 46 7.8 80 80 N 21 33 29.80 1009 10 16 N/A
9:55 am 09:55 Partly Cloudy 53 11.9 47 8.5 80 80 N 23 37 29.81 1009 10 16 N/A
10:15 am 10:15 Mostly Cloudy 53 11.8 47 8.1 78 78 N 20 31 29.83 1010 10 16 N/A
10:35 am 10:35 Cloudy 53 11.9 46 7.9 77 77 N 23 37 29.85 1011 10 16 N/A
10:55 am 10:55 Cloudy 53 11.7 46 7.9 78 78 N 21 33 29.86 1011 10 16 N/A
11:15 am 11:15 Cloudy 54 12 46 8 77 77 N 23 37 29.87 1011 10 16 N/A
11:35 am 11:35 Cloudy 53 11.6 45 7.3 75 75 N 23 37 29.89 1012 10 16 N/A
11:55 am 11:55 Cloudy 52 11 45 7 77 77 N 22 35 29.91 1013 10 16 N/A
12:15 pm 12:15 Cloudy 51 10.7 44 6.8 77 77 N 23 37 29.93 1013 10 16 N/A
12:35 pm 12:35 Cloudy 52 11.3 45 7.2 76 76 N 26 43 29.92 1013 10 16 N/A
12:55 pm 12:55 Cloudy 53 11.7 45 7.3 75 75 N 24 39 29.92 1013 10 16 N/A
1:15 pm 13:15 Cloudy 54 12.1 45 7.2 72 72 N 28 44 29.90 1013 10 16 N/A
1:35 pm 13:35 Mostly Cloudy 55 12.8 45 7.4 70 70 N 25 41 29.89 1012 10 16 N/A
1:55 pm 13:55 Mostly Cloudy 56 13.1 46 7.5 69 69 N 29 46 29.89 1012 10 16 N/A
2:15 pm 14:15 Mostly Cloudy 56 13.6 46 7.7 68 68 N 31 50 29.88 1012 10 16 N/A
2:35 pm 14:35 Mostly Cloudy 57 14.1 46 7.6 65 65 N 28 44 29.88 1012 10 16 N/A
2:55 pm 14:55 Partly Cloudy 58 14.2 45 7.2 63 63 N 28 44 29.87 1011 10 16 N/A
3:15 pm 15:15 Partly Cloudy 58 14.4 45 7.2 62 62 NNE 30 48 29.87 1012 10 16 N/A
3:35 pm 15:35 Partly Cloudy 58 14.6 45 7 61 61 N 24 39 29.87 1012 10 16 N/A
3:55 pm 15:55 Partly Cloudy 58 14.6 44 6.8 60 60 N 29 46 29.87 1012 10 16 N/A
4:15 pm 16:15 Sunny 58 14.6 44 6.5 59 59 N 29 46 29.86 1011 10 16 N/A
4:35 pm 16:35 Sunny 59 15 44 6.4 57 57 N 22 35 29.87 1011 10 16 N/A
4:55 pm 16:55 Partly Cloudy 60 15.4 44 6.7 56 56 N 23 37 29.88 1012 10 16 N/A
5:15 pm 17:15 Partly Cloudy 59 15.2 43 6.3 56 56 N 22 35 29.89 1012 10 16 N/A
5:35 pm 17:35 Partly Cloudy 59 15 42 5.4 53 53 NNE 22 35 29.89 1012 10 16 N/A
5:55 pm 17:55 Partly Cloudy 58 14.4 42 5.4 55 55 N 22 35 29.90 1013 10 16 N/A
6:15 pm 18:15 Partly Cloudy 58 14.5 41 5 53 53 N 22 35 29.91 1013 10 16 N/A
6:35 pm 18:35 Sunny 59 14.9 40 4.7 51 51 N 22 35 29.90 1013 10 16 N/A
6:55 pm 18:55 Sunny 58 14.7 39 3.9 49 49 N 20 31 29.90 1013 10 16 N/A
7:15 pm 19:15 Sunny 58 14.2 39 4.1 51 51 N 17 28 29.92 1013 10 16 N/A
7:35 pm 19:35 Sunny 57 13.7 38 3.4 50 50 N 16 26 29.93 1014 10 16 N/A
7:55 pm 19:55 Sunny 56 13.1 37 2.8 50 50 N 15 24 29.95 1014 10 16 N/A
8:15 pm 20:15 Sunny 54 12.3 38 3.1 54 54 N 13 20 29.96 1015 10 16 N/A
8:35 pm 20:35 Sunny 53 11.6 38 3.2 57 57 N 9 15 29.98 1015 10 16 N/A
8:55 pm 20:55 Clear 53 11.5 36 2.4 54 54 N 12 19 29.99 1016 10 16 N/A
9:15 pm 21:15 Clear 52 11.1 36 2.3 55 55 N 12 19 30.00 1016 10 16 N/A
9:35 pm 21:35 Clear 50 10.2 37 2.8 60 60 N 9 15 30.03 1017 10 16 N/A
9:55 pm 21:55 Partly Cloudy 49 9.5 37 3 64 64 N 10 17 30.05 1018 10 16 N/A
10:15 pm 22:15 Cloudy 50 10.1 37 2.5 60 60 N 12 19 30.05 1018 10 16 N/A
10:35 pm 22:35 Mostly Cloudy 50 10 36 2.4 60 60 N 8 13 30.06 1018 10 16 N/A
10:55 pm 22:55 Partly Cloudy 50 9.8 36 2 59 59 N 8 13 30.06 1018 10 16 N/A
11:15 pm 23:15 Partly Cloudy 49 9.3 37 2.5 63 63 N 8 13 30.06 1018 10 16 N/A
11:35 pm 23:35 Clear 49 9.4 36 2.3 62 62 N 9 15 30.06 1018 10 16 N/A
11:55 pm 23:55 Partly Cloudy 49 9.3 36 2.2 61 61 N 10 17 30.06 1018 10 16 N/A

Powered by AerisWeather